Buffalo, WY (82834)

6:00 AM MDT on September 20, 2014 (GMT -0600)
Esponda Ranch | Change Station
CLOSE
Current Station
Personal Weather Station
Location: Buffalo, WY
Elevation: 4665 ft
Nearby Weather Stations

Elev 4665 ft 44.32 °N, 106.67 °W | Updated 11 minutes ago

Clear
Clear
46.7 °F
Feels Like 47 °F
N
1.0
Wind Variable Wind from SW
Gusts 1.0 mph

Today
High -- | Low -- °F
--% Chance of Precip.
Yesterday
High -- | Low -- °F
Precip. -- in
6:51 AM 7:07 PM
Waning Crescent, 13% visible
Pressure 30.07 in
Visibility 10.0 miles
Clouds Clear
Windchill 47 °F
Dew Point 44 °F
Humidity 90%
Rainfall 0.00 in
Snow Depth 0 in , 0 in , 0 in
UV 0 out of 12
Pollen 5.30 out of 12
Air Quality Not available.
Flu Activity Not available.
METAR KBYG 201153Z AUTO 34006KT 10SM CLR 13/06 A3019 RMK AO2 SLP182 T01280056 10139 20111 53014

More Conditions Fewer Conditions

Pressure 30.07 in
Visibility 10.0 miles
Clouds Clear
Windchill 47 °F
Dew Point 44 °F
Humidity 90%
Rainfall 0.00 in
Snow Depth 0 in , 0 in , 0 in
UV 0 out of 12
Pollen 5.30 out of 12
Air Quality Not available.
Flu Activity Not available.
METAR KBYG 201153Z AUTO 34006KT 10SM CLR 13/06 A3019 RMK AO2 SLP182 T01280056 10139 20111 53014

More Conditions Fewer Conditions

10-Day Weather Forecast

Almanac

Astronomy

Sep. 20, 2014 Rise Set
Actual Time 6:51 AM MDT 7:07 PM MDT
Civil Twilight 6:22 AM MDT 7:36 PM MDT
Nautical Twilight 5:48 AM MDT 8:10 PM MDT
Astronomical Twilight 5:13 AM MDT 8:45 PM MDT
Moon 3:27 AM MDT 5:17 PM MDT
Length of Visible Light 13h 14m
Length of Day
12h 16m
Tomorrow will be 3m 2s shorter.
Waning Crescent, 13% of the Moon is Illuminated
Today
Waning Crescent
Sep 24
New
Oct 1
First Quarter
Oct 8
Full
Oct 15
Last Quarter

Today's Extremes

State Highs State Lows

Community

WunderPhotos

Upload Photos

1,754,832 photos uploaded!

Nearby

Snow Depth

Station Depth Elevation
Two Ocean Plateau 0 in 9240 ft
East Rim Divide 0 in 7930 ft
New Fork Lake 0 in 8340 ft
Loomis Park 0 in 8240 ft
Salt River Summit 0 in 7600 ft

Earthquake Activity

City Distance Mag. Time & Date
No recent earthquake activity has been reported nearby.
Minimum magnitude displayed is 2.5.

Coastal Water Temperatures

Place Temperature
No Stations Reporting

Nearby Weather Stations